Khudzhand, Tajikistan

6:42 AM +05 on August 18, 2017 (GMT +0500)
Khudzhand

Weather History for UTDL - March, 2013

Change the Weather History Date:

Thursday, March 7, 2013

  Actual Average Record
Temperature  
Mean Temperature 42 °F -  
Max Temperature 57 °F - - ()
Min Temperature 28 °F - - ()
Degree Days  
Heating Degree Days 22    
Moisture  
Dew Point 36 °F    
Average Humidity 84    
Maximum Humidity 93    
Minimum Humidity 63    
Precipitation  
Precipitation 0.00 in - - ()
Sea Level Pressure  
Sea Level Pressure 30.29 in    
Wind  
Wind Speed 23 mph ()    
Max Wind Speed 31 mph    
Max Gust Speed 45 mph    
Visibility 4.9 miles    
Events Fog , Rain , Snow    
T = Trace of Precipitation, MM = Missing Value Source: Averaged Metar Reports

Daily Weather History Graph

Daily Weather History Graph

Search for Another Location

Airport or City:

Trip Planner

Search our weather history database for the weather conditions in past years. The results will help you decide how hot, cold, wet, or windy it might be!

Date:

Astronomy

Mar. 07, 2013 Rise Set
Actual Time 7:45 AM +06 7:19 PM +06
Civil Twilight 7:18 AM +06 7:46 PM +06
Nautical Twilight 6:47 AM +06 8:17 PM +06
Astronomical Twilight 6:15 AM +06 8:49 PM +06
Moon 4:24 AM +06 (3/7) 2:37 PM +06 (3/7)
Length of Visible Light 12h 27m
Length of Day
11h 33m
Waning Crescent, 24% of the Moon is Illuminated
Mar 7
Waning Crescent
Mar 12
New
Mar 19
First Quarter
Mar 27
Full
Apr 3
Last Quarter

Hourly Weather History & Observations

Time (+06) Temp. Windchill Dew Point Humidity Pressure Visibility Wind Dir Wind Speed Gust Speed Precip Events Conditions
12:00 AM 55.4 °F - 44.6 °F 67% 29.95 in 3.7 mi WSW 11.2 mph - N/A   Overcast
12:30 AM 57.2 °F - 44.6 °F 63% 29.95 in 4.3 mi WSW 22.4 mph 29.1 mph N/A   Overcast
1:00 AM 55.4 °F - 44.6 °F 67% 29.95 in 5.0 mi WSW 22.4 mph 29.1 mph N/A   Overcast
1:30 AM 55.4 °F - 44.6 °F 67% 29.98 in 5.0 mi WSW 26.8 mph 35.8 mph N/A   Overcast
2:00 AM 53.6 °F - 44.6 °F 72% 29.98 in 5.0 mi WSW 29.1 mph 40.3 mph N/A   Overcast
2:05 AM - - - N/A% - 5.0 mi WSW 29.1 mph 40.3 mph N/A   Overcast
2:30 AM 53.6 °F - 44.6 °F 72% 30.04 in 5.0 mi WSW 29.1 mph 42.5 mph N/A   Overcast
3:00 AM 51.8 °F - 44.6 °F 76% 30.04 in 5.0 mi WSW 26.8 mph 38.0 mph N/A   Overcast
3:30 AM 51.8 °F - 44.6 °F 76% 30.04 in 5.0 mi WSW 22.4 mph 33.6 mph N/A   Overcast
4:00 AM 51.8 °F - 44.6 °F 76% 30.06 in 6.2 mi WSW 22.4 mph 33.6 mph N/A   Overcast
4:30 AM 51.8 °F - 44.6 °F 76% 30.06 in 6.2 mi WSW 24.6 mph 31.3 mph N/A   Overcast
5:00 AM 50.0 °F - 44.6 °F 82% 30.06 in 5.0 mi West 20.1 mph 29.1 mph N/A Rain Light Rain Showers
5:30 AM 50.0 °F - 46.4 °F 87% 30.06 in 3.7 mi West 20.1 mph 26.8 mph N/A Rain Light Rain Showers
6:00 AM 48.2 °F - 46.4 °F 93% 30.09 in 5.0 mi WSW 24.6 mph 35.8 mph N/A Rain Light Rain Showers
6:30 AM 48.2 °F - 44.6 °F 87% 30.12 in 3.7 mi WSW 24.6 mph 33.6 mph N/A Rain Light Rain Showers
7:00 AM 46.4 °F 38.0 °F 44.6 °F 93% 30.15 in 4.3 mi West 24.6 mph 35.8 mph N/A Rain Light Rain Showers
7:31 AM 44.6 °F 35.2 °F 42.8 °F 93% 30.18 in 1.9 mi WSW 26.8 mph 35.8 mph N/A Rain Rain Showers
8:00 AM 44.6 °F 35.2 °F 41.0 °F 87% 30.18 in 2.5 mi WSW 26.8 mph 38.0 mph N/A Rain Rain Showers
8:30 AM 42.8 °F 32.4 °F 41.0 °F 93% 30.18 in 3.1 mi WSW 29.1 mph 40.3 mph N/A Rain Rain Showers
9:00 AM 42.8 °F 32.1 °F 39.2 °F 87% 30.21 in 1.8 mi WSW 31.3 mph 42.5 mph N/A Rain Rain
9:30 AM 41.0 °F 30.0 °F 39.2 °F 93% 30.27 in 3.1 mi WSW 29.1 mph 40.3 mph N/A Rain Light Rain
10:00 AM 41.0 °F 29.6 °F 37.4 °F 87% 30.27 in 5.0 mi WSW 31.3 mph 42.5 mph N/A Rain Light Rain Showers
10:30 AM 39.2 °F 27.2 °F 37.4 °F 93% 30.30 in 6.2 mi WSW 31.3 mph 42.5 mph N/A   Overcast
11:00 AM 39.2 °F 27.2 °F 35.6 °F 87% 30.30 in 4.3 mi WSW 31.3 mph 42.5 mph N/A   Overcast
11:30 AM 39.2 °F 27.6 °F 35.6 °F 87% 30.33 in 5.0 mi WSW 29.1 mph 44.7 mph N/A   Overcast
12:00 PM 37.4 °F 24.7 °F 33.8 °F 87% 30.33 in 5.0 mi West 31.3 mph 42.5 mph N/A   Overcast
12:30 PM 37.4 °F 25.5 °F 35.6 °F 93% 30.36 in 3.1 mi WSW 26.8 mph 35.8 mph N/A Rain Rain
1:00 PM 37.4 °F 25.1 °F 33.8 °F 87% 30.36 in 5.0 mi West 29.1 mph 38.0 mph N/A Rain Light Rain Showers
1:30 PM 37.4 °F 25.1 °F 32.0 °F 81% 30.39 in 5.0 mi West 29.1 mph 38.0 mph N/A Rain Light Rain Showers
2:00 PM 37.4 °F 25.5 °F 32.0 °F 81% 30.39 in 5.6 mi WSW 26.8 mph 38.0 mph N/A Rain Light Rain Showers
2:30 PM 37.4 °F 26.0 °F 32.0 °F 81% 30.39 in 5.6 mi WSW 24.6 mph 35.8 mph N/A Rain Light Rain Showers
3:00 PM 37.4 °F 25.1 °F 30.2 °F 75% 30.39 in 6.2 mi West 29.1 mph 38.0 mph N/A Rain Light Rain Showers
3:30 PM 35.6 °F 22.3 °F 32.0 °F 87% 30.39 in 6.2 mi West 31.3 mph 38.0 mph N/A Rain Light Rain Showers
4:00 PM 35.6 °F 22.7 °F 30.2 °F 81% 30.42 in 6.2 mi West 29.1 mph 35.8 mph N/A Rain Light Rain Showers
4:30 PM 35.6 °F 23.6 °F 32.0 °F 87% 30.42 in 6.2 mi West 24.6 mph 33.6 mph N/A   Overcast
5:00 PM 35.6 °F 23.1 °F 30.2 °F 81% 30.45 in 6.2 mi West 26.8 mph 35.8 mph N/A   Overcast
5:30 PM 35.6 °F 23.6 °F 30.2 °F 81% 30.45 in 6.2 mi West 24.6 mph 33.6 mph N/A   Overcast
6:00 PM 33.8 °F 21.7 °F 28.4 °F 81% 30.45 in 6.2 mi West 22.4 mph 31.3 mph N/A   Overcast
6:30 PM 33.8 °F 21.2 °F 28.4 °F 81% 30.45 in 6.2 mi WSW 24.6 mph 31.3 mph N/A   Overcast
7:00 PM 33.8 °F 21.2 °F 28.4 °F 81% 30.45 in 6.2 mi WSW 24.6 mph 33.6 mph N/A   Overcast
7:30 PM 32.0 °F 18.8 °F 28.4 °F 87% 30.48 in 5.0 mi WSW 24.6 mph 35.8 mph N/A   Overcast
8:00 PM 32.0 °F 18.8 °F 28.4 °F 87% 30.48 in 6.2 mi WSW 24.6 mph 31.3 mph N/A   Overcast
8:30 PM 30.2 °F 15.4 °F 28.4 °F 93% 30.48 in 6.2 mi WSW 29.1 mph 38.0 mph N/A Snow Light Snow Showers
9:00 PM 30.2 °F 15.9 °F 28.4 °F 93% 30.48 in 6.2 mi WSW 26.8 mph 35.8 mph N/A Snow Light Snow Showers
9:30 PM 30.2 °F 15.9 °F 26.6 °F 86% 30.51 in 6.2 mi WSW 26.8 mph 35.8 mph N/A Snow Light Snow Showers
10:00 PM 30.2 °F 17.0 °F 26.6 °F 86% 30.54 in 6.2 mi WSW 22.4 mph 31.3 mph N/A Snow Light Snow
10:30 PM 30.2 °F 17.0 °F 26.6 °F 86% 30.51 in 6.2 mi WSW 22.4 mph 31.3 mph N/A Snow Light Snow
11:00 PM 28.4 °F 14.6 °F 26.6 °F 93% 30.51 in 6.2 mi WSW 22.4 mph 29.1 mph N/A   Overcast
11:14 PM 28.4 °F 15.2 °F 26.6 °F 93% 30.51 in 0.5 mi WSW 20.1 mph 26.8 mph N/A Fog , Snow Light Snow
11:33 PM 28.4 °F 15.9 °F 26.6 °F 93% 30.48 in 0.9 mi WSW 17.9 mph 24.6 mph N/A Snow Snow
11:55 PM 28.4 °F 15.2 °F 26.6 °F 93% 30.48 in - WSW 20.1 mph 26.8 mph N/A Snow Light Snow